Tracking 19562 objects as of 24-Mar-2019
HD Live streaming from Space Station
objects crossing your sky now

ZA-AEROSAT

Track ZA-AEROSAT now!
10-day predictions
ZA-AEROSAT is classified as:


NORAD ID: 42713
Int'l Code: 1998-067LU
Perigee: 312.2 km
Apogee: 317.7 km
Inclination: 51.6 °
Period: 90.7 minutes
Semi major axis: 6685 km
RCS: Unknown
Launch date: November 20, 1998
Source: South Africa (SAFR)
Launch site: TYURATAM MISSILE AND SPACE COMPLEX (TTMTR)

Uplink (MHz):
Downlink (MHz): 437.195
Beacon (MHz):
Mode: 9600bps GMSK
Call sign: ON01AZ
Status: Active

aabbcc
Your satellite tracking list
Your tracking list is empty




NASA's NSSDC Master Catalog

Two Line Element Set (TLE):
1 42713U 98067LU  19082.99768599  .00078166  00000-0  28072-3 0  9999
2 42713  51.6319 359.0818 0004150 160.5532 199.5632 15.88037119105644
Source of the keplerian elements: AMSAT